Location: Bishopstone
(51.0167°N, 1.9000°W)
Time: 19:28:25
(UTC+00:00)

Okean 1-7 Rocket - Pass Details

Date: 16 September 2019
Orbit: 617 x 649 km, 82.5° (Epoch: 19 October)

Event Time Altitude Azimuth Distance (km) Brightness Sun altitude
Rises 20:28:57 0° 346° (NNW) 2,911 7.7 -19.9°
Reaches altitude 10° 20:31:13 10° 343° (NNW) 2,003 6.8 -20.2°
Maximum altitude 20:35:33 58° 265° (W) 736 4.1 -20.8°
Enters shadow 20:38:09 23° 194° (SSW) 1,334 5.1 -21.2°
